User: anonymous   Login
Location: Unspecified
(0.0000°N, 0.0000°E)
Time: 07:10:21
(UTC+00:00)
Language:

STUDSAT - Orbit

View from above orbital plane
View from above orbital plane
View from above satellite
View from above satellite

Ground track
Ground track

The orbit data is extracted from the following two-line orbital elements,

1 36796U 10035B   17178.86017664 +.00000227 +00000-0 +31595-4 0  9990
2 36796 098.0300 292.0879 0011698 309.7384 050.2800 14.87118115376827
Epoch (UTC): 27 June 2017 20:38:39
Eccentricity: 0.0011698
inclination: 98.0300°
perigee height: 599 km
apogee height: 615 km
right ascension of ascending node: 292.0879°
argument of perigee: 309.7384°
revolutions per day: 14.87118115
mean anomaly at epoch: 50.2800°
orbit number at epoch: 37682

The dashed part of the orbit path shows where the satellite is in the earth's shadow,  

DLR